Powrót do katalogu

STARLINK DEPLOYMENT RAIL

AktywnySSO
NORAD 47437·DEBRIS·🇺🇸 United States
Ta nazwa satelity nie została jeszcze potwierdzona przez oficjalne źródła.

Wystrzelony Jan 24, 2021 z Cape Canaveral Space Force Station

Loading…

Następne Przeloty (najbliższe 24 godziny)

TLE

ŚwieżeSource: Space-Track

Epoka: Sep 14, 2026, 14:15 UTC

1 47437U 21006AA  26257.59407098  .00003742  00000-0  12464-3 0  9994
2 47437  97.2160 296.2086 0006996 237.0450 123.0119 15.31701608313002

Śledź STARLINK DEPLOYMENT RAIL w czasie rzeczywistym z AllMySat

Download on the App Store